Location: Julian California
(33.0790°N, 116.6010°W)
Time: 10:59:37
(UTC-07:00)

USA 238 - Pass Details

Date: 19 May 2017
Orbit: 1083 x 1130 km, 63.4° (Epoch: 25 August)

Event Time Altitude Azimuth Distance (km) Brightness Sun altitude
Rises 20:50:08 0° 324° (NW) 3,940 8.1 -13.2°
Reaches altitude 10° 20:52:51 10° 321° (NW) 2,985 7.3 -13.6°
Maximum altitude 20:59:46 56° 245° (WSW) 1,311 4.3 -14.8°
Enters shadow 21:06:27 11° 170° (S) 2,910 5.5 -15.9°
